Regional Weather Roundup
Issued by NWS Mobile, AL

Home | Current Version | Previous Version | Text Only | Print | Product List | Glossary On
Versions: 1 2 3 4 5 6 7 8 9 10 11 12 13 14 15 16 17 18 19 20 21 22 23 24 25 26 27 28 29 30 31 32 33 34 35 36 37 38 39 40 41 42 43 44 45 46 47 48 49
000
ASUS44 KMOB 301710
RWRMOB
REGIONAL WEATHER ROUNDUP
NATIONAL WEATHER SERVICE MOBILE AL
1200 PM CDT TUE SEP 30 2014

NOTE: "FAIR" INDICATES FEW OR NO CLOUDS BELOW 12,000 FEET WITH NO
      SIGNIFICANT WEATHER AND/OR OBSTRUCTIONS TO VISIBILITY.

  * THESE STATIONS ARE PART OF THE UNIVERSITY OF SOUTH ALABAMA
    MESONET AND ARE NOT UNDER NWS OR FAA QUALITY CONTROL.

ALZ061>064-301800-
COASTAL ALABAMA

CITY           SKY/WX    TMP DP  RH WIND       PRES   REMARKS
MOBILE REG APT CLOUDY    76  70  82 N7        29.94S HAZE
BROOKLEY FIELD CLOUDY    78  70  76 NE6       29.94F
USA CAMPUS*      N/A     77  70  78 E5        29.92F
DOG RIVER*     NOT AVBL


CITY           SKY/WX    TMP DP  RH WIND       PRES   REMARKS
MOUNT VERNON*    N/A     75  68  78 CALM      29.94S
SARALAND*      NOT AVBL
BAY MINETTE*   NOT AVBL
LOXLEY*          N/A     77  70  78 N7        29.93S
ROBERTSDALE*     N/A     77  68  73 CALM      29.93S
FAIRHOPE*        N/A     77  70  78 NE6       29.92F
ELBERTA*         N/A     77  70  78 E3        29.91F
FOLEY*         NOT AVBL
GRAND BAY*       N/A     75  70  83 NE3       29.92S
DAUPHIN ISLND* NOT AVBL
BON SCOUR NWR* NOT AVBL
GULF SHORES    CLOUDY    78  70  75 E6        29.92S

$$

ALZ051>060-301800-
INTERIOR SOUTHWEST AND SOUTH CENTRAL ALABAMA

CITY           SKY/WX    TMP DP  RH WIND       PRES   REMARKS
GREENVILLE     CLOUDY    75  65  70 E5        29.94F
EVERGREEN      CLOUDY    75  68  78 NE6       29.95S
CASTLEBERRY*   NOT AVBL
ATMORE*          N/A     77  68  73 NE5       29.95F
DIXIE*         NOT AVBL
ANDALUSIA/OPP  CLOUDY    77  67  71 VRB5      29.94S
ANDALUSIA*     NOT AVBL
FLORALA APT    CLOUDY    76  67  73 NE8       29.95S
FLORALA*         N/A     73  64  73 NE2       29.91S

$$

FLZ001>006-301800-
WESTERN FLORIDA PANHANDLE

CITY           SKY/WX    TMP DP  RH WIND       PRES   REMARKS
PENSACOLA      CLOUDY    77  67  71 NE6       29.92S
NAS PENSACOLA  CLOUDY    78  69  73 NE8       29.91F
MILTON         CLOUDY    77  67  71 NE3       29.92F
WHTNG S FIELD  CLOUDY    79  67  66 NE8       29.92F


CITY           SKY/WX    TMP DP  RH WIND       PRES   REMARKS
WALNUT HILL*   NOT AVBL
JAY*             N/A     75  66  73 N6        29.94S
DUKE FIELD     CLOUDY    76  76  98 NE6       29.92F
CRESTVIEW      CLOUDY    76  68  76 NE9       29.94S
VALPARAISO     CLOUDY    77  68  72 N7        29.92S
DESTIN         CLOUDY    78  69  73 N7        29.91S

$$

MSZ076-079-301800-
INTERIOR SOUTHEAST MISSISSIPPI

CITY           SKY/WX    TMP DP  RH WIND       PRES   REMARKS
LEAKESVILLE*     N/A     72  68  88 CALM      29.95F
AGRICOLA*      NOT AVBL

$$

MARINE OBSERVATIONS

STATION/POSITION TIME  TEMP    WIND        PRES    WAVE
                       AIR SEA DIR/SP/G            HT/PER
                 (UTC) (F)     (DEG/KT/KT) (MB)    (FT/S)
PASCAGOULA       1700   78      20/  6/  9 1013.0R
PETIT BOIS ISLND 1700   76      60/  8/ 10 1013.5R
GRAND BAY        1600   73      90/  8     1015.0R
KATRINA CUT      1600   75      70/ 10     1014.2S
CEDAR POINT      1600   73      70/  8     1013.2F
E DAUPHIN ISLAND 1555   74      60/  9/ 10 1013.3S
MIDDLE BAY LIGHT 1600   77      50/  1     1012.5F
USCG MOBILE BAY  1700   75 79              1012.3S
STATE DOCKS      1700   78 80              1013.2R
MEAHER PARK      1600   77      30/  3     1012.9F
WEEKS BAY        1600   76                   N/A
FORT MORGAN      1700   76      70/  8/ 10 1012.7S
12 S ORANGE BCH  1700   76 82   50/ 12/ 14 1012.9F   2/ 5
PENSACOLA BAY    1700   78 78   70/  6/  7 1013.3S
64 S DAUPHIN ISL 1618   80 82   70/ 10/ 12 1012.7F   2/ 5
67 S FORT MORGAN 1500   77                 1012.2R

$$

SELECTED LOCATIONS ACROSS THE REGION

CITY           SKY/WX    TMP DP  RH WIND       PRES   REMARKS
NEW ORLEANS    MOSUNNY   85  72  65 NE8       29.90F
GULFPORT       CLOUDY    82  72  71 SE10      29.91S
PASCAGOULA AP  CLOUDY    78  70  76 NE6       29.93S
PASCAGOULA*      N/A     79  72  78 E5        29.92S
HATTIESBURG    PTSUNNY   82  70  66 SE5       29.94F
LAUREL         MOSUNNY   81  68  65 E6        29.95F
MERIDIAN       SUNNY     81  64  56 NE7       29.95F
JACKSON        PTSUNNY   83  66  56 CALM      29.93F
MONTGOMERY     CLOUDY    78  65  63 CALM      29.95F
TROY           CLOUDY    76  66  71 NE8       29.95S
KINSTON*       NOT AVBL
GENEVA*          N/A     72  66  83 NE6       29.96R
ASHFORD*       NOT AVBL
DOTHAN         CLOUDY    73  66  78 E7        29.97S
PANAMA CITY    CLOUDY    78  69  73 N7        29.90S

$$




USA.gov is the U.S. government's official web portal to all federal, state and local government web resources and services.